SPACEMOBILE-001

Last updated on Mon Sep 21 2026 00:02:09 GMT+0000 (Coordinated Universal Time)

1 61047U 24163C 26262.90841701 -.00000239 00000+0 40353-5 0 9996 2 61047 52.9692 233.6105 0007750 49.8181 310.3491 15.20395910112171
UTC large
Height (km)
Speed (km/s)
/
Latitude / Longitude
Inclination (degrees)
Orbital Period (minutes)
Azimuth
Elevation
Range (km)
Doppler Factor

Next 0 passes for location: London (51.5072 / 0.1276)

No passes found over London.
SPACEMOBILE-001